Weather History for Lafayette, LA

Change the Weather History Date:

Sunday, July 8, 2012

  Actual Average Record
Temperature  
Mean Temperature 82 °F 83 °F  
Max Temperature 88 °F 92 °F 99 °F (1990)
Min Temperature 76 °F 75 °F 60 °F (1905)
Cooling Degree Days 17 18  
Month to date cooling degree days 148 144  
Year to date cooling degree days 1496 1256  
Since 1 June cooling degree days 650 642  
Growing Degree Days 32 (Base 50)    
Moisture  
Dew Point 74 °F    
Average Humidity 79    
Maximum Humidity 94    
Minimum Humidity 63    
Precipitation  
Precipitation 0.10 in 0.23 in 2.05 in (2000)
Month to date precipitation 2.13 1.91  
Year to date precipitation 34.60 31.61  
Sea Level Pressure  
Sea Level Pressure 30.04 in    
Wind  
Wind Speed 1 mph (SE)    
Max Wind Speed 21 mph    
Max Gust Speed 31 mph    
Visibility 10 miles    
Events Thunderstorm    
T = Trace of Precipitation, MM = Missing Value Source: NWS Daily Summary

Daily Weather History Graph

Daily Weather History Graph

Search for Another Location

Airport:

Trip Planner

Search our weather history database for the weather conditions in past years. The results will help you decide how hot, cold, wet, or windy it might be!

Date:

Astronomy

Jul. 08, 2012 Rise Set
Actual Time 6:13 AM CDT 8:12 PM CDT
Civil Twilight 5:46 AM CDT 8:39 PM CDT
Nautical Twilight 5:13 AM CDT 9:12 PM CDT
Astronomical Twilight 4:37 AM CDT 9:48 PM CDT
Moon 11:29 PM CDT (7/8) 11:14 AM CDT (7/8)
Length of Visible Light 14h 53m
Length of Day
13h 59m
Waning Gibbous, 73% of the Moon is Illuminated
Jul 8
Waning Gibbous
Jul 10
Last Quarter
Jul 18
New
Jul 26
First Quarter
Aug 1
Full

Hourly Weather History & Observations

Time (CDT) Temp. Heat Index Dew Point Humidity Pressure Visibility Wind Dir Wind Speed Gust Speed Precip Events Conditions
12:53 AM 78.1 °F - 75.0 °F 90% 30.03 in 10.0 mi Calm Calm - N/A   Clear
1:53 AM 78.1 °F - 75.0 °F 90% 30.02 in 10.0 mi Calm Calm - N/A   Clear
2:53 AM 75.9 °F - 73.9 °F 94% 30.02 in 10.0 mi Calm Calm - N/A   Clear
3:53 AM 77.0 °F - 75.0 °F 94% 30.02 in 9.0 mi Calm Calm - N/A   Clear
4:53 AM 75.9 °F - 73.9 °F 94% 30.02 in 10.0 mi Calm Calm - N/A   Clear
5:53 AM 77.0 °F - 73.9 °F 90% 30.03 in 10.0 mi Calm Calm - N/A   Clear
6:53 AM 77.0 °F - 73.9 °F 90% 30.05 in 10.0 mi Calm Calm - N/A   Clear
7:50 AM 77.0 °F - 73.4 °F 89% 30.07 in 10.0 mi Calm Calm - N/A   Mostly Cloudy
7:53 AM 78.1 °F - 73.9 °F 87% 30.07 in 10.0 mi Calm Calm - N/A   Mostly Cloudy
8:01 AM 78.8 °F - 73.4 °F 83% 30.07 in 10.0 mi Calm Calm - N/A   Scattered Clouds
8:53 AM 80.1 °F 84.2 °F 73.0 °F 79% 30.06 in 10.0 mi Calm Calm - N/A   Clear
9:53 AM 82.9 °F 89.4 °F 73.9 °F 74% 30.06 in 10.0 mi Variable 3.5 mph - N/A   Clear
10:53 AM 84.9 °F 92.1 °F 73.9 °F 69% 30.06 in 10.0 mi Calm Calm - N/A   Clear
11:26 AM 87.8 °F 97.6 °F 75.2 °F 66% 30.05 in 10.0 mi Calm Calm - N/A   Overcast
11:53 AM 88.0 °F 96.5 °F 73.9 °F 63% 30.05 in 10.0 mi South 5.8 mph - N/A   Overcast
11:59 AM 87.8 °F 95.6 °F 73.4 °F 62% 30.05 in 10.0 mi SSE 3.5 mph - N/A Thunderstorm Scattered Clouds
12:53 PM 77.0 °F - 73.0 °F 88% 30.06 in 10.0 mi SW 3.5 mph - 0.10 in Thunderstorm Overcast
1:53 PM 77.0 °F - 73.0 °F 88% 30.05 in 10.0 mi Calm Calm - 0.00 in   Overcast
2:53 PM 78.1 °F - 73.0 °F 84% 30.04 in 10.0 mi Calm Calm - N/A   Mostly Cloudy
3:53 PM 77.0 °F - 73.9 °F 90% 30.04 in 10.0 mi ENE 4.6 mph - N/A   Clear
4:53 PM 79.0 °F - 73.9 °F 84% 30.03 in 10.0 mi NE 3.5 mph - N/A   Clear
5:53 PM 79.0 °F - 73.9 °F 84% 29.99 in 10.0 mi Calm Calm - N/A   Clear
6:53 PM 80.1 °F 85.1 °F 75.0 °F 85% 29.99 in 10.0 mi Calm Calm - N/A   Clear
7:53 PM 79.0 °F - 73.9 °F 84% 29.99 in 10.0 mi Calm Calm - N/A   Clear
8:53 PM 78.1 °F - 73.9 °F 87% 29.99 in 10.0 mi Calm Calm - N/A   Clear
9:53 PM 77.0 °F - 73.9 °F 90% 30.00 in 10.0 mi Calm Calm - N/A   Clear
10:53 PM 75.9 °F - 73.9 °F 94% 30.04 in 10.0 mi Calm Calm - N/A   Clear
11:53 PM 75.9 °F - 73.9 °F 94% 30.04 in 10.0 mi Calm Calm - N/A   Clear